CCA110 VHHH-ZBAA

Flight info

Callsign CCA110
Flight time 2h 42m
Altitude 33100
Route K0865S1010 BEKOL1Y BEKOL A461 BUBDA/K0865S1040 W56 REBIS/K0859S1010 W56 LEBUN/K0843S1040 W56 NUDKU/K0841S1070 W56 DUGEB DUGEB4A
Aircraft A321/M-SDE3FGHIRWY/LB1

Departure

Time 2026-05-04 01:36
Airport Hong Kong International Airport (VHHH)

Arrival

Time 2026-05-04 04:18
Airport Beijing Capital International Airport (ZBAA)
Time Latitude Longitude Altitude Speed Heading
2026-05-04 01:11 22.31785 113.93074 36 ft 0 kts 261°
2026-05-04 01:21 22.31787 113.93086 35 ft 4 kts 262°
2026-05-04 01:21 22.31789 113.93115 33 ft 4 kts 272°
2026-05-04 01:22 22.31785 113.93143 33 ft 4 kts 304°
2026-05-04 01:22 22.31777 113.93152 35 ft 3 kts 336°
2026-05-04 01:22 22.31774 113.93154 35 ft 0 kts 340°
2026-05-04 01:27 22.31777 113.93153 35 ft 3 kts 341°
2026-05-04 01:27 22.31819 113.93137 35 ft 9 kts 340°
2026-05-04 01:27 22.31869 113.93102 34 ft 9 kts 303°
2026-05-04 01:27 22.31864 113.93033 35 ft 12 kts 247°
2026-05-04 01:28 22.31831 113.92938 33 ft 14 kts 251°
2026-05-04 01:28 22.31798 113.92836 35 ft 14 kts 250°
2026-05-04 01:28 22.31765 113.92735 35 ft 14 kts 250°
2026-05-04 01:28 22.31732 113.92632 35 ft 15 kts 251°
2026-05-04 01:29 22.31698 113.92529 35 ft 15 kts 251°
2026-05-04 01:29 22.31666 113.92426 35 ft 14 kts 251°
2026-05-04 01:29 22.31632 113.92323 35 ft 14 kts 250°
2026-05-04 01:29 22.31599 113.92221 35 ft 15 kts 251°
2026-05-04 01:30 22.31565 113.92117 35 ft 15 kts 251°
2026-05-04 01:30 22.31532 113.92012 35 ft 15 kts 250°
2026-05-04 01:30 22.31498 113.91907 35 ft 15 kts 251°
2026-05-04 01:30 22.31463 113.91800 35 ft 15 kts 251°
2026-05-04 01:31 22.31428 113.91691 35 ft 15 kts 251°
2026-05-04 01:31 22.31393 113.91580 35 ft 16 kts 250°
2026-05-04 01:31 22.31356 113.91468 35 ft 17 kts 250°
2026-05-04 01:31 22.31310 113.91320 35 ft 24 kts 249°
2026-05-04 01:32 22.31247 113.91130 35 ft 28 kts 251°
2026-05-04 01:32 22.31184 113.90934 35 ft 27 kts 250°
2026-05-04 01:32 22.31122 113.90742 35 ft 27 kts 250°
2026-05-04 01:32 22.31061 113.90552 35 ft 27 kts 251°
2026-05-04 01:33 22.31002 113.90365 35 ft 26 kts 251°
2026-05-04 01:33 22.30943 113.90183 35 ft 26 kts 251°
2026-05-04 01:33 22.30884 113.90003 35 ft 25 kts 251°
2026-05-04 01:33 22.30851 113.89847 35 ft 17 kts 305°
2026-05-04 01:34 22.30957 113.89803 35 ft 16 kts 340°
2026-05-04 01:34 22.31064 113.89770 36 ft 15 kts
2026-05-04 01:34 22.31104 113.89825 35 ft 0 kts 71°
2026-05-04 01:35 22.31129 113.89908 34 ft 40 kts 72°
2026-05-04 01:35 22.31297 113.90422 35 ft 102 kts 70°
2026-05-04 01:35 22.31589 113.91322 36 ft 149 kts 71°
2026-05-04 01:35 22.31968 113.92499 145 ft 176 kts 69°
2026-05-04 01:36 22.32397 113.93760 639 ft 182 kts 68°
2026-05-04 01:36 22.32866 113.95078 1041 ft 194 kts 67°
2026-05-04 01:36 22.33323 113.96451 1392 ft 200 kts 70°
2026-05-04 01:36 22.33653 113.97974 1600 ft 217 kts 78°
2026-05-04 01:37 22.33906 113.99626 1995 ft 227 kts 78°
2026-05-04 01:37 22.34190 114.01349 2378 ft 241 kts 78°
2026-05-04 01:37 22.34390 114.03195 2877 ft 253 kts 86°
2026-05-04 01:37 22.34265 114.05122 3484 ft 263 kts 101°
2026-05-04 01:38 22.33614 114.06996 4017 ft 274 kts 121°
2026-05-04 01:38 22.32327 114.08554 4517 ft 282 kts 146°
2026-05-04 01:38 22.30532 114.09367 5144 ft 282 kts 175°
2026-05-04 01:38 22.28601 114.09254 5849 ft 276 kts 194°
2026-05-04 01:39 22.26734 114.08882 6675 ft 272 kts 188°
2026-05-04 01:39 22.24814 114.08923 7208 ft 283 kts 178°
2026-05-04 01:39 22.22819 114.09016 7697 ft 287 kts 184°
2026-05-04 01:39 22.20818 114.08950 7959 ft 287 kts 187°
2026-05-04 01:40 22.18826 114.09053 8022 ft 291 kts 169°
2026-05-04 01:40 22.17038 114.10075 8025 ft 297 kts 137°
2026-05-04 01:40 22.15959 114.11963 8026 ft 301 kts 105°
2026-05-04 01:40 22.15708 114.14197 8023 ft 304 kts 93°
2026-05-04 01:41 22.15582 114.16479 8020 ft 304 kts 94°
2026-05-04 01:41 22.15452 114.18760 8017 ft 304 kts 94°
2026-05-04 01:41 22.15318 114.21039 8016 ft 304 kts 94°
2026-05-04 01:41 22.15226 114.22547 8015 ft 304 kts 94°
2026-05-04 01:42 22.15138 114.24827 8009 ft 304 kts 86°
2026-05-04 01:42 22.15548 114.27059 8207 ft 306 kts 66°
2026-05-04 01:42 22.16648 114.29014 8766 ft 307 kts 44°
2026-05-04 01:42 22.18336 114.30376 9299 ft 303 kts 19°
2026-05-04 01:43 22.20348 114.30921 9849 ft 296 kts 356°
2026-05-04 01:43 22.22352 114.30621 10318 ft 291 kts 335°
2026-05-04 01:43 22.24232 114.29698 10445 ft 306 kts 328°
2026-05-04 01:43 22.26172 114.28634 10560 ft 321 kts 328°
2026-05-04 01:44 22.28213 114.27502 10675 ft 338 kts 328°
2026-05-04 01:44 22.30361 114.26318 10800 ft 355 kts 329°
2026-05-04 01:44 22.32614 114.25087 10928 ft 370 kts 329°
2026-05-04 01:44 22.34937 114.23828 11299 ft 376 kts 329°
2026-05-04 01:45 22.37293 114.22558 11739 ft 381 kts 329°
2026-05-04 01:45 22.39673 114.21277 12254 ft 384 kts 329°
2026-05-04 01:45 22.44501 114.18678 13120 ft 391 kts 328°
2026-05-04 01:46 22.46937 114.17355 13591 ft 394 kts 328°
2026-05-04 01:46 22.49370 114.16030 14012 ft 397 kts 328°
2026-05-04 01:46 22.51846 114.14682 14435 ft 399 kts 328°
2026-05-04 01:46 22.54331 114.13331 14864 ft 401 kts 328°
2026-05-04 01:47 22.56838 114.11996 15282 ft 403 kts 329°
2026-05-04 01:47 22.59376 114.10686 15703 ft 405 kts 330°
2026-05-04 01:47 22.61929 114.09392 16120 ft 406 kts 330°
2026-05-04 01:47 22.64502 114.08092 16532 ft 408 kts 330°
2026-05-04 01:48 22.67075 114.06785 16954 ft 410 kts 330°
2026-05-04 01:48 22.69656 114.05466 17401 ft 410 kts 330°
2026-05-04 01:48 22.72238 114.04141 17836 ft 411 kts 330°
2026-05-04 01:48 22.74832 114.02807 18258 ft 413 kts 330°
2026-05-04 01:49 22.77434 114.01466 18601 ft 415 kts 329°
2026-05-04 01:49 22.80047 114.00117 18920 ft 417 kts 329°
2026-05-04 01:49 22.82674 113.98761 19250 ft 419 kts 329°
2026-05-04 01:49 22.85316 113.97397 19557 ft 422 kts 329°
2026-05-04 01:50 22.87974 113.96022 19834 ft 425 kts 329°
2026-05-04 01:50 22.90651 113.94639 20127 ft 428 kts 329°
2026-05-04 01:50 22.93344 113.93248 20424 ft 430 kts 329°
2026-05-04 01:50 22.96056 113.91840 20709 ft 433 kts 329°
2026-05-04 01:51 22.98774 113.90422 21000 ft 435 kts 328°
2026-05-04 01:51 23.01514 113.88988 21282 ft 438 kts 328°
2026-05-04 01:51 23.04265 113.87549 21558 ft 440 kts 328°
2026-05-04 01:51 23.07004 113.86119 21824 ft 443 kts 328°
2026-05-04 01:52 23.09827 113.84730 22082 ft 449 kts 333°
2026-05-04 01:52 23.12775 113.83566 22360 ft 453 kts 334°
2026-05-04 01:52 23.15742 113.82406 22686 ft 453 kts 334°
2026-05-04 01:52 23.18718 113.81243 22962 ft 455 kts 334°
2026-05-04 01:53 23.21701 113.80075 23215 ft 457 kts 333°
2026-05-04 01:53 23.24705 113.78894 23475 ft 459 kts 333°
2026-05-04 01:53 23.27716 113.77709 23710 ft 461 kts 333°
2026-05-04 01:53 23.30739 113.76515 23928 ft 463 kts 333°
2026-05-04 01:54 23.33774 113.75317 24163 ft 464 kts 333°
2026-05-04 01:54 23.36811 113.74118 24429 ft 465 kts 333°
2026-05-04 01:54 23.39852 113.72920 24692 ft 465 kts 333°
2026-05-04 01:54 23.42897 113.71722 24921 ft 466 kts 333°
2026-05-04 01:55 23.45952 113.70517 25140 ft 467 kts 333°
2026-05-04 01:55 23.49007 113.69309 25353 ft 468 kts 333°
2026-05-04 01:55 23.52072 113.68096 25584 ft 469 kts 333°
2026-05-04 01:55 23.55138 113.66883 25805 ft 470 kts 334°
2026-05-04 01:56 23.58214 113.65668 26000 ft 471 kts 333°
2026-05-04 01:56 23.61309 113.64447 26214 ft 473 kts 333°
2026-05-04 01:56 23.64399 113.63226 26403 ft 473 kts 333°
2026-05-04 01:56 23.67499 113.61999 26592 ft 474 kts 333°
2026-05-04 01:57 23.70600 113.60772 26798 ft 475 kts 333°
2026-05-04 01:57 23.73709 113.59539 27087 ft 474 kts 333°
2026-05-04 01:57 23.76803 113.58315 27483 ft 471 kts 332°
2026-05-04 01:57 23.79875 113.57100 27856 ft 468 kts 332°
2026-05-04 01:58 23.82926 113.55891 28198 ft 466 kts 331°
2026-05-04 01:58 23.85972 113.54678 28517 ft 465 kts 331°
2026-05-04 01:58 23.89009 113.53466 28802 ft 464 kts 331°
2026-05-04 01:58 23.92035 113.52257 29081 ft 463 kts 331°
2026-05-04 01:59 23.95024 113.51063 29348 ft 463 kts 331°
2026-05-04 01:59 23.98046 113.49859 29637 ft 462 kts 331°
2026-05-04 01:59 24.01064 113.48659 29907 ft 461 kts 331°
2026-05-04 01:59 24.04078 113.47458 30157 ft 461 kts 331°
2026-05-04 02:00 24.07091 113.46256 30398 ft 462 kts 330°
2026-05-04 02:00 24.10120 113.45045 30538 ft 463 kts 330°
2026-05-04 02:00 24.13154 113.43833 30752 ft 464 kts 330°
2026-05-04 02:00 24.16192 113.42642 31013 ft 466 kts 333°
2026-05-04 02:01 24.19383 113.41828 31272 ft 478 kts 342°
2026-05-04 02:01 24.22749 113.41605 31498 ft 490 kts 352°
2026-05-04 02:01 24.26163 113.41726 31723 ft 491 kts 353°
2026-05-04 02:01 24.29579 113.41853 31955 ft 491 kts 353°
2026-05-04 02:02 24.32990 113.41976 32172 ft 490 kts 353°
2026-05-04 02:02 24.36405 113.42095 32459 ft 489 kts 352°
2026-05-04 02:02 24.39799 113.42199 32734 ft 487 kts 352°
2026-05-04 02:02 24.43185 113.42287 32949 ft 487 kts 352°
2026-05-04 02:03 24.46575 113.42370 33120 ft 486 kts 352°
2026-05-04 02:03 24.49911 113.42451 33217 ft 486 kts 352°
2026-05-04 02:03 24.56661 113.42625 33230 ft 485 kts 352°
2026-05-04 02:04 24.63411 113.42820 33232 ft 487 kts 352°
2026-05-04 02:04 24.70167 113.43019 33228 ft 484 kts 351°
2026-05-04 02:05 24.76911 113.43210 33234 ft 484 kts 352°
2026-05-04 02:05 24.83653 113.43392 33244 ft 485 kts 351°
2026-05-04 02:06 24.90395 113.43587 33239 ft 484 kts 352°
2026-05-04 02:06 24.97129 113.43784 33264 ft 484 kts 351°
2026-05-04 02:07 25.03860 113.43976 33260 ft 484 kts 351°
2026-05-04 02:07 25.10594 113.44170 33252 ft 484 kts 351°
2026-05-04 02:08 25.17319 113.44365 33250 ft 483 kts 351°
2026-05-04 02:08 25.24042 113.44562 33282 ft 483 kts 351°
2026-05-04 02:09 25.30706 113.44750 33259 ft 481 kts 351°
2026-05-04 02:09 25.37436 113.44936 33256 ft 484 kts 351°
2026-05-04 02:10 25.44179 113.45134 33254 ft 484 kts 351°
2026-05-04 02:10 25.50906 113.45328 33288 ft 483 kts 351°
2026-05-04 02:11 25.57662 113.45524 33260 ft 487 kts 351°
2026-05-04 02:11 25.64436 113.45717 33247 ft 487 kts 351°
2026-05-04 02:12 25.71217 113.45912 33244 ft 487 kts 351°
2026-05-04 02:12 25.77999 113.46108 33243 ft 488 kts 351°
2026-05-04 02:13 25.84786 113.46307 33258 ft 488 kts 351°
2026-05-04 02:13 25.91561 113.46362 33258 ft 483 kts 348°
2026-05-04 02:14 25.98208 113.46058 33258 ft 480 kts 346°
2026-05-04 02:14 26.04885 113.45674 33260 ft 481 kts 346°
2026-05-04 02:15 26.11592 113.45374 33286 ft 482 kts 347°
2026-05-04 02:15 26.18297 113.45143 33271 ft 482 kts 347°
2026-05-04 02:16 26.24992 113.44912 33265 ft 481 kts 347°
2026-05-04 02:16 26.31672 113.44656 33256 ft 480 kts 347°
2026-05-04 02:17 26.38348 113.44398 33254 ft 480 kts 347°
2026-05-04 02:17 26.45025 113.44131 33256 ft 480 kts 347°
2026-05-04 02:18 26.51696 113.43875 33248 ft 480 kts 347°
2026-05-04 02:18 26.58373 113.43628 33252 ft 480 kts 347°
2026-05-04 02:19 26.65049 113.43370 33284 ft 480 kts 347°
2026-05-04 02:19 26.71721 113.43112 33269 ft 479 kts 347°
2026-05-04 02:20 26.78387 113.42851 33251 ft 479 kts 348°
2026-05-04 02:20 26.85061 113.42599 33236 ft 478 kts 347°
2026-05-04 02:21 26.91661 113.42353 33245 ft 477 kts 347°
2026-05-04 02:21 26.98277 113.42092 33244 ft 475 kts 347°
2026-05-04 02:22 27.04886 113.41830 33242 ft 475 kts 347°
2026-05-04 02:22 27.11490 113.41569 33241 ft 475 kts 347°
2026-05-04 02:23 27.18095 113.41321 33246 ft 475 kts 347°
2026-05-04 02:23 27.24696 113.41067 33255 ft 473 kts 347°
2026-05-04 02:24 27.31274 113.40810 33250 ft 473 kts 347°
2026-05-04 02:24 27.37883 113.40706 33250 ft 477 kts 350°
2026-05-04 02:25 27.44540 113.40891 33251 ft 479 kts 351°
2026-05-04 02:25 27.51205 113.41120 33281 ft 478 kts 351°
2026-05-04 02:26 27.57810 113.41280 33264 ft 477 kts 350°
2026-05-04 02:26 27.64438 113.41388 33261 ft 476 kts 350°
2026-05-04 02:27 27.71095 113.41717 33256 ft 481 kts 353°
2026-05-04 02:27 27.77789 113.42396 33253 ft 483 kts 355°
2026-05-04 02:28 27.84468 113.43107 33229 ft 481 kts 354°
2026-05-04 02:28 27.91134 113.43717 33230 ft 480 kts 353°
2026-05-04 02:29 27.96671 113.44178 33232 ft 480 kts 353°
2026-05-04 02:29 28.04419 113.44829 33278 ft 480 kts 354°
2026-05-04 02:30 28.10004 113.45316 33267 ft 480 kts 354°
2026-05-04 02:30 28.16657 113.45823 33263 ft 478 kts 353°
2026-05-04 02:31 28.23299 113.46270 33260 ft 478 kts 353°
2026-05-04 02:31 28.29894 113.46726 33288 ft 478 kts 353°
2026-05-04 02:32 28.36537 113.47203 33273 ft 478 kts 353°
2026-05-04 02:32 28.43181 113.47687 33256 ft 478 kts 353°
2026-05-04 02:33 28.49823 113.48156 33248 ft 478 kts 353°
2026-05-04 02:33 28.56465 113.48624 33290 ft 478 kts 354°
2026-05-04 02:34 28.63114 113.49097 33271 ft 479 kts 354°
2026-05-04 02:34 28.69757 113.49583 33260 ft 478 kts 354°
2026-05-04 02:35 28.76400 113.50063 33258 ft 478 kts 354°
2026-05-04 02:35 28.83041 113.50546 33297 ft 478 kts 354°
2026-05-04 02:36 28.89689 113.51021 33281 ft 478 kts 354°
2026-05-04 02:36 28.96336 113.51493 33271 ft 479 kts 354°
2026-05-04 02:37 29.02986 113.51969 33268 ft 479 kts 354°
2026-05-04 02:37 29.09581 113.52448 33255 ft 478 kts 354°
2026-05-04 02:38 29.16219 113.52931 33251 ft 478 kts 354°
2026-05-04 02:38 29.22852 113.53407 33259 ft 478 kts 354°
2026-05-04 02:39 29.29494 113.53886 33257 ft 478 kts 354°
2026-05-04 02:39 29.36134 113.54437 33284 ft 479 kts 355°
2026-05-04 02:40 29.42776 113.55045 33269 ft 478 kts 355°
2026-05-04 02:40 29.49415 113.55641 33262 ft 478 kts 355°
2026-05-04 02:41 29.56044 113.56217 33254 ft 478 kts 355°
2026-05-04 02:41 29.62674 113.56786 33281 ft 477 kts 355°
2026-05-04 02:42 29.69284 113.57353 33240 ft 476 kts 355°
2026-05-04 02:42 29.75887 113.57927 33239 ft 476 kts 355°
2026-05-04 02:43 29.82487 113.58505 33238 ft 476 kts 355°
2026-05-04 02:43 29.89089 113.59085 33269 ft 476 kts 355°
2026-05-04 02:44 29.95694 113.60287 33249 ft 493 kts
2026-05-04 02:44 30.02114 113.63336 33234 ft 501 kts 15°
2026-05-04 02:45 30.08472 113.66523 33229 ft 501 kts 15°
2026-05-04 02:45 30.14877 113.69720 33265 ft 502 kts 15°
2026-05-04 02:46 30.21284 113.72924 33252 ft 502 kts 15°
2026-05-04 02:46 30.27694 113.76130 33224 ft 502 kts 15°
2026-05-04 02:47 30.34109 113.79334 33226 ft 502 kts 15°
2026-05-04 02:47 30.40540 113.82563 33257 ft 503 kts 15°
2026-05-04 02:48 30.46959 113.85796 33233 ft 503 kts 15°
2026-05-04 02:48 30.53390 113.89037 33234 ft 503 kts 15°
2026-05-04 02:49 30.59813 113.92278 33268 ft 503 kts 15°
2026-05-04 02:49 30.66237 113.95508 33258 ft 503 kts 15°
2026-05-04 02:50 30.72640 113.98658 33250 ft 504 kts 16°
2026-05-04 02:50 30.78998 114.02139 33247 ft 506 kts 19°
2026-05-04 02:51 30.85327 114.05723 33246 ft 504 kts 18°
2026-05-04 02:51 30.91661 114.09192 33211 ft 503 kts 17°
2026-05-04 02:52 30.98024 114.12601 33203 ft 504 kts 17°
2026-05-04 02:52 31.04396 114.16042 33212 ft 505 kts 17°
2026-05-04 02:53 31.10762 114.19511 33256 ft 504 kts 17°
2026-05-04 02:53 31.17103 114.22974 33253 ft 502 kts 17°
2026-05-04 02:54 31.23433 114.26422 33245 ft 501 kts 17°
2026-05-04 02:54 31.29747 114.29870 33280 ft 500 kts 17°
2026-05-04 02:55 31.36139 114.32673 33228 ft 480 kts
2026-05-04 02:55 31.39398 114.33250 33226 ft 468 kts 354°
2026-05-04 02:56 31.45857 114.33462 33220 ft 464 kts 352°
2026-05-04 02:56 31.52269 114.33647 33215 ft 464 kts 352°
2026-05-04 02:57 31.58735 114.33850 33215 ft 465 kts 352°
2026-05-04 02:57 31.65201 114.34049 33215 ft 465 kts 352°
2026-05-04 02:58 31.71660 114.34241 33195 ft 464 kts 352°
2026-05-04 02:58 31.78131 114.34427 33241 ft 465 kts 352°
2026-05-04 02:59 31.84608 114.34620 33232 ft 465 kts 353°
2026-05-04 02:59 31.91081 114.34814 33224 ft 465 kts 352°
2026-05-04 03:00 31.97549 114.35016 33219 ft 464 kts 353°
2026-05-04 03:00 32.03964 114.35207 33241 ft 464 kts 353°
2026-05-04 03:01 32.10420 114.35403 33225 ft 463 kts 353°
2026-05-04 03:01 32.16862 114.35599 33215 ft 463 kts 353°
2026-05-04 03:02 32.23295 114.35796 33208 ft 462 kts 353°
2026-05-04 03:02 32.29732 114.36096 33230 ft 464 kts 357°
2026-05-04 03:03 32.36177 114.36714 33211 ft 465 kts 358°
2026-05-04 03:03 32.42628 114.37409 33206 ft 465 kts 358°
2026-05-04 03:04 32.49066 114.38035 33199 ft 464 kts 358°
2026-05-04 03:04 32.55502 114.38607 33215 ft 464 kts 359°
2026-05-04 03:05 32.61940 114.39170 33190 ft 464 kts 358°
2026-05-04 03:05 32.68377 114.39760 33183 ft 464 kts 358°
2026-05-04 03:06 32.74822 114.40370 33186 ft 464 kts 358°
2026-05-04 03:06 32.81211 114.40977 33211 ft 463 kts 359°
2026-05-04 03:07 32.87632 114.41564 33193 ft 463 kts 359°
2026-05-04 03:07 32.94054 114.42152 33192 ft 462 kts 359°
2026-05-04 03:08 33.00468 114.42762 33211 ft 462 kts 359°
2026-05-04 03:08 33.06865 114.43372 33204 ft 460 kts
2026-05-04 03:09 33.13243 114.43969 33201 ft 459 kts 360°
2026-05-04 03:09 33.19604 114.44557 33197 ft 458 kts
2026-05-04 03:10 33.25954 114.45157 33212 ft 457 kts
2026-05-04 03:10 33.32293 114.45759 33205 ft 456 kts
2026-05-04 03:11 33.38611 114.46350 33198 ft 455 kts
2026-05-04 03:11 33.44883 114.46940 33194 ft 455 kts
2026-05-04 03:12 33.51183 114.47534 33208 ft 453 kts
2026-05-04 03:12 33.57461 114.48121 33203 ft 452 kts
2026-05-04 03:13 33.63723 114.48715 33197 ft 451 kts
2026-05-04 03:13 33.69973 114.49307 33193 ft 450 kts
2026-05-04 03:14 33.76216 114.49894 33209 ft 449 kts
2026-05-04 03:14 33.82434 114.50471 33199 ft 448 kts
2026-05-04 03:15 33.88643 114.51054 33194 ft 447 kts
2026-05-04 03:15 33.94809 114.51640 33191 ft 447 kts
2026-05-04 03:16 34.01001 114.52225 33185 ft 446 kts
2026-05-04 03:16 34.07200 114.52808 33183 ft 446 kts
2026-05-04 03:17 34.13391 114.53389 33179 ft 446 kts
2026-05-04 03:17 34.19587 114.53972 33201 ft 446 kts
2026-05-04 03:18 34.24725 114.54460 33195 ft 446 kts
2026-05-04 03:18 34.30909 114.55052 33190 ft 445 kts
2026-05-04 03:19 34.37088 114.55642 33186 ft 445 kts
2026-05-04 03:19 34.43263 114.56227 33198 ft 445 kts
2026-05-04 03:20 34.49428 114.56813 33188 ft 444 kts
2026-05-04 03:20 34.55588 114.57398 33186 ft 444 kts
2026-05-04 03:21 34.61744 114.57982 33183 ft 444 kts
2026-05-04 03:21 34.67894 114.58574 33200 ft 443 kts
2026-05-04 03:22 34.74039 114.59163 33191 ft 442 kts
2026-05-04 03:22 34.80176 114.59741 33180 ft 442 kts
2026-05-04 03:23 34.86307 114.60328 33184 ft 442 kts
2026-05-04 03:23 34.92433 114.60911 33194 ft 441 kts
2026-05-04 03:24 34.98551 114.61496 33193 ft 440 kts
2026-05-04 03:24 35.04614 114.62078 33186 ft 440 kts
2026-05-04 03:25 35.10717 114.62666 33202 ft 440 kts
2026-05-04 03:25 35.16814 114.63254 33203 ft 439 kts
2026-05-04 03:26 35.22895 114.63843 33196 ft 438 kts
2026-05-04 03:26 35.28972 114.64425 33191 ft 438 kts
2026-05-04 03:27 35.35049 114.65007 33201 ft 437 kts
2026-05-04 03:27 35.41077 114.65592 33196 ft 437 kts
2026-05-04 03:28 35.47137 114.66184 33194 ft 437 kts
2026-05-04 03:28 35.53194 114.66773 33190 ft 437 kts
2026-05-04 03:29 35.59254 114.67359 33195 ft 436 kts
2026-05-04 03:29 35.65300 114.67946 33194 ft 436 kts
2026-05-04 03:30 35.71350 114.68534 33187 ft 436 kts
2026-05-04 03:30 35.77392 114.69129 33184 ft 435 kts
2026-05-04 03:31 35.83433 114.69720 33203 ft 435 kts
2026-05-04 03:31 35.89470 114.70309 33195 ft 435 kts
2026-05-04 03:32 35.95499 114.70900 33190 ft 434 kts
2026-05-04 03:32 36.01484 114.71491 33204 ft 434 kts
2026-05-04 03:33 36.07504 114.72080 33196 ft 433 kts
2026-05-04 03:33 36.13518 114.72669 33193 ft 433 kts
2026-05-04 03:34 36.19525 114.73254 33194 ft 433 kts
2026-05-04 03:34 36.25529 114.73844 33190 ft 433 kts
2026-05-04 03:35 36.31535 114.74446 33183 ft 432 kts
2026-05-04 03:35 36.37508 114.75438 33175 ft 437 kts 12°
2026-05-04 03:36 36.43161 114.78334 33177 ft 441 kts 21°
2026-05-04 03:36 36.48727 114.81574 33186 ft 441 kts 21°
2026-05-04 03:37 36.54254 114.84776 33182 ft 441 kts 21°
2026-05-04 03:37 36.59824 114.87995 33181 ft 441 kts 21°
2026-05-04 03:38 36.65382 114.91215 33177 ft 441 kts 21°
2026-05-04 03:38 36.70940 114.94452 33173 ft 441 kts 21°
2026-05-04 03:39 36.76493 114.97704 33167 ft 441 kts 21°
2026-05-04 03:39 36.82048 115.00945 33170 ft 441 kts 21°
2026-05-04 03:40 36.87605 115.04184 33180 ft 441 kts 21°
2026-05-04 03:40 36.93162 115.07440 33169 ft 441 kts 21°
2026-05-04 03:41 36.98714 115.10698 33159 ft 441 kts 21°
2026-05-04 03:41 37.04266 115.13960 33174 ft 441 kts 21°
2026-05-04 03:42 37.09793 115.17220 33172 ft 441 kts 21°
2026-05-04 03:42 37.15343 115.20492 33160 ft 440 kts 21°
2026-05-04 03:43 37.20853 115.23739 33157 ft 440 kts 21°
2026-05-04 03:43 37.26397 115.27016 33164 ft 440 kts 21°
2026-05-04 03:44 37.31930 115.30298 33162 ft 440 kts 21°
2026-05-04 03:44 37.37472 115.33587 33175 ft 440 kts 21°
2026-05-04 03:45 37.43017 115.36879 33176 ft 440 kts 20°
2026-05-04 03:45 37.48555 115.40178 33173 ft 440 kts 21°
2026-05-04 03:46 37.54082 115.43474 33166 ft 439 kts 20°
2026-05-04 03:46 37.59605 115.46776 33163 ft 439 kts 21°
2026-05-04 03:47 37.65125 115.50080 33174 ft 439 kts 21°
2026-05-04 03:47 37.70638 115.53383 33165 ft 438 kts 21°
2026-05-04 03:48 37.76154 115.56678 33156 ft 437 kts 18°
2026-05-04 03:48 37.81905 115.58497 33165 ft 426 kts
2026-05-04 03:49 37.87775 115.58292 33154 ft 422 kts 353°
2026-05-04 03:49 37.93633 115.57860 33146 ft 422 kts 353°
2026-05-04 03:50 37.99492 115.57438 33148 ft 422 kts 353°
2026-05-04 03:50 38.05347 115.57003 33156 ft 422 kts 353°
2026-05-04 03:51 38.11208 115.56606 33150 ft 422 kts 354°
2026-05-04 03:51 38.17070 115.56283 33148 ft 421 kts 354°
2026-05-04 03:52 38.22932 115.55902 33126 ft 423 kts 356°
2026-05-04 03:52 38.28795 115.56986 32658 ft 429 kts 13°
2026-05-04 03:52 38.31606 115.58430 31128 ft 444 kts 22°
2026-05-04 03:53 38.34382 115.60209 29280 ft 449 kts 22°
2026-05-04 03:53 38.37194 115.62021 27107 ft 456 kts 23°
2026-05-04 03:53 38.40043 115.63851 25087 ft 463 kts 24°
2026-05-04 03:53 38.42950 115.65700 23810 ft 465 kts 24°
2026-05-04 03:54 38.45769 115.67486 23059 ft 438 kts 24°
2026-05-04 03:54 38.48386 115.69141 22311 ft 414 kts 24°
2026-05-04 03:54 38.50933 115.70745 21666 ft 412 kts 24°
2026-05-04 03:54 38.53509 115.72361 20969 ft 412 kts 24°
2026-05-04 03:55 38.56073 115.73970 20306 ft 409 kts 24°
2026-05-04 03:55 38.58617 115.75572 19652 ft 407 kts 24°
2026-05-04 03:55 38.61147 115.77174 19009 ft 404 kts 24°
2026-05-04 03:55 38.63661 115.78771 18372 ft 402 kts 24°
2026-05-04 03:56 38.66103 115.80492 17697 ft 401 kts 31°
2026-05-04 03:56 38.68321 115.82675 17347 ft 408 kts 38°
2026-05-04 03:56 38.70501 115.85036 17081 ft 411 kts 37°
2026-05-04 03:56 38.72693 115.87393 16818 ft 411 kts 37°
2026-05-04 03:57 38.74881 115.89737 16558 ft 409 kts 37°
2026-05-04 03:57 38.77058 115.92069 16308 ft 408 kts 37°
2026-05-04 03:57 38.79229 115.94397 16054 ft 406 kts 37°
2026-05-04 03:57 38.81391 115.96720 15816 ft 405 kts 37°
2026-05-04 03:58 38.85690 116.01355 15727 ft 405 kts 37°
2026-05-04 03:58 38.87846 116.03685 15729 ft 405 kts 37°
2026-05-04 03:58 38.89999 116.06017 15729 ft 405 kts 37°
2026-05-04 03:59 38.92151 116.08351 15726 ft 405 kts 37°
2026-05-04 03:59 38.94303 116.10686 15727 ft 405 kts 37°
2026-05-04 03:59 38.96452 116.13019 15727 ft 404 kts 37°
2026-05-04 03:59 38.98608 116.15338 15723 ft 404 kts 35°
2026-05-04 04:00 39.00966 116.17256 15722 ft 400 kts 24°
2026-05-04 04:00 39.03549 116.18541 15723 ft 398 kts 14°
2026-05-04 04:00 39.06258 116.19197 15305 ft 394 kts
2026-05-04 04:00 39.08978 116.19138 14914 ft 389 kts 352°
2026-05-04 04:01 39.11659 116.18708 14541 ft 387 kts 352°
2026-05-04 04:01 39.14326 116.18286 14171 ft 385 kts 352°
2026-05-04 04:01 39.16974 116.17880 13795 ft 382 kts 352°
2026-05-04 04:01 39.19611 116.17485 13401 ft 380 kts 352°
2026-05-04 04:02 39.22205 116.17101 13037 ft 379 kts 352°
2026-05-04 04:02 39.24814 116.16712 12675 ft 377 kts 352°
2026-05-04 04:02 39.27414 116.16325 12314 ft 375 kts 352°
2026-05-04 04:02 39.29997 116.15941 11947 ft 374 kts 352°
2026-05-04 04:03 39.32579 116.15552 11589 ft 374 kts 352°
2026-05-04 04:03 39.35147 116.15162 11252 ft 367 kts 352°
2026-05-04 04:03 39.37628 116.14786 11125 ft 351 kts 351°
2026-05-04 04:03 39.39995 116.14513 10984 ft 330 kts 360°
2026-05-04 04:04 39.42167 116.15119 10861 ft 314 kts 21°
2026-05-04 04:04 39.43932 116.16646 10728 ft 301 kts 41°
2026-05-04 04:04 39.45123 116.18835 10431 ft 297 kts 64°
2026-05-04 04:04 39.45616 116.21437 10358 ft 302 kts 80°
2026-05-04 04:05 39.45871 116.24147 10283 ft 304 kts 80°
2026-05-04 04:05 39.46129 116.26858 10159 ft 304 kts 79°
2026-05-04 04:05 39.46388 116.29563 10023 ft 302 kts 79°
2026-05-04 04:05 39.46647 116.32265 9781 ft 301 kts 79°
2026-05-04 04:06 39.46902 116.34946 9545 ft 300 kts 79°
2026-05-04 04:06 39.47157 116.37634 9309 ft 300 kts 79°
2026-05-04 04:06 39.47411 116.40308 9074 ft 299 kts 80°
2026-05-04 04:06 39.47595 116.42071 8926 ft 298 kts 76°
2026-05-04 04:07 39.48225 116.44584 8708 ft 292 kts 59°
2026-05-04 04:07 39.49310 116.46763 8486 ft 286 kts 44°
2026-05-04 04:07 39.50731 116.48525 8280 ft 282 kts 37°
2026-05-04 04:07 39.52211 116.50198 8073 ft 282 kts 37°
2026-05-04 04:08 39.53685 116.51875 7861 ft 282 kts 38°
2026-05-04 04:08 39.55155 116.53553 7655 ft 282 kts 37°
2026-05-04 04:08 39.56625 116.55235 7448 ft 281 kts 37°
2026-05-04 04:08 39.57954 116.56753 7257 ft 281 kts 36°
2026-05-04 04:09 39.59423 116.58430 7047 ft 281 kts 38°
2026-05-04 04:09 39.60891 116.60110 6849 ft 281 kts 39°
2026-05-04 04:09 39.62355 116.61791 6639 ft 281 kts 36°
2026-05-04 04:09 39.63824 116.63472 6437 ft 282 kts 37°
2026-05-04 04:10 39.65296 116.65152 6214 ft 282 kts 37°
2026-05-04 04:10 39.66910 116.66546 6002 ft 276 kts 21°
2026-05-04 04:10 39.68727 116.67266 5712 ft 273 kts
2026-05-04 04:10 39.70609 116.67333 5275 ft 270 kts 352°
2026-05-04 04:11 39.72464 116.67030 4956 ft 268 kts 348°
2026-05-04 04:11 39.74314 116.66706 4607 ft 268 kts 349°
2026-05-04 04:11 39.76126 116.66422 4474 ft 257 kts 350°
2026-05-04 04:11 39.77857 116.66154 4330 ft 245 kts 349°
2026-05-04 04:12 39.79530 116.65895 4094 ft 238 kts 348°
2026-05-04 04:12 39.81149 116.65643 3980 ft 238 kts 348°
2026-05-04 04:12 39.82804 116.65383 3999 ft 244 kts 349°
2026-05-04 04:12 39.84483 116.65121 4001 ft 242 kts 350°
2026-05-04 04:13 39.86143 116.64862 3896 ft 240 kts 350°
2026-05-04 04:13 39.87800 116.64603 3631 ft 240 kts 350°
2026-05-04 04:13 39.89427 116.64348 3356 ft 232 kts 349°
2026-05-04 04:13 39.91033 116.64098 3012 ft 231 kts 350°
2026-05-04 04:14 39.92592 116.63854 2726 ft 222 kts 349°
2026-05-04 04:14 39.94094 116.63622 2414 ft 210 kts 353°
2026-05-04 04:14 39.95470 116.63404 2157 ft 190 kts 351°
2026-05-04 04:14 39.96740 116.63206 1928 ft 178 kts 351°
2026-05-04 04:15 39.97797 116.63039 1686 ft 168 kts 353°
2026-05-04 04:15 39.98270 116.62946 1606 ft 165 kts 348°
2026-05-04 04:16 39.99081 116.62801 1314 ft 168 kts 351°
2026-05-04 04:16 40.00214 116.62656 1105 ft 160 kts 351°
2026-05-04 04:16 40.01320 116.62482 932 ft 160 kts 350°
2026-05-04 04:17 40.02406 116.62324 767 ft 154 kts 352°
2026-05-04 04:17 40.03461 116.62178 579 ft 151 kts 350°
2026-05-04 04:17 40.04492 116.61997 411 ft 148 kts 349°
2026-05-04 04:17 40.05517 116.61830 242 ft 148 kts 351°
2026-05-04 04:18 40.06522 116.61672 123 ft 138 kts 351°
2026-05-04 04:18 40.07334 116.61542 122 ft 92 kts 354°
2026-05-04 04:18 40.07762 116.61465 122 ft 37 kts 343°
2026-05-04 04:18 40.07934 116.61333 123 ft 20 kts 324°
2026-05-04 04:19 40.07934 116.61216 121 ft 15 kts 199°
2026-05-04 04:19 40.07832 116.61228 122 ft 15 kts 172°
2026-05-04 04:19 40.07731 116.61243 121 ft 14 kts 172°
2026-05-04 04:19 40.07634 116.61259 119 ft 14 kts 173°
2026-05-04 04:20 40.07540 116.61272 124 ft 13 kts 173°
2026-05-04 04:20 40.07448 116.61287 122 ft 15 kts 173°
2026-05-04 04:20 40.07326 116.61304 120 ft 20 kts 172°
2026-05-04 04:20 40.07165 116.61331 120 ft 26 kts 173°
2026-05-04 04:21 40.06987 116.61360 122 ft 26 kts 173°
2026-05-04 04:21 40.06811 116.61387 120 ft 25 kts 173°
2026-05-04 04:21 40.06642 116.61413 122 ft 25 kts 173°
2026-05-04 04:21 40.06473 116.61440 122 ft 24 kts 173°
2026-05-04 04:22 40.06309 116.61466 123 ft 23 kts 173°
2026-05-04 04:22 40.06153 116.61490 122 ft 20 kts 174°
2026-05-04 04:22 40.06017 116.61512 121 ft 19 kts 172°
2026-05-04 04:22 40.05933 116.61459 120 ft 14 kts 256°
2026-05-04 04:23 40.05923 116.61338 122 ft 13 kts 263°
2026-05-04 04:23 40.05911 116.61212 123 ft 14 kts 263°
2026-05-04 04:23 40.05957 116.61129 122 ft 13 kts 353°
2026-05-04 04:23 40.06043 116.61116 120 ft 12 kts 353°
2026-05-04 04:24 40.06125 116.61104 121 ft 12 kts 353°
2026-05-04 04:24 40.06169 116.61044 122 ft 10 kts 269°
2026-05-04 04:24 40.06154 116.60973 121 ft 4 kts 245°
2026-05-04 04:24 40.06149 116.60959 122 ft 0 kts 244°